Location: Newark
(50.4348°N, 30.5552°E)
Time: 19:41:36
(UTC+00:00)

Tiros 1 despin weight - Pass Details

Date: 24 January 2020
Orbit: 594 x 642 km, 48.2° (Epoch: 27 February)

Event Time Altitude Azimuth Distance (km) Brightness Sun altitude
Rises 14:29:33 0° 279° (W) 2,913 ? 0.0°
Reaches altitude 10° 14:31:58 10° 272° (W) 2,011 ? -0.3°
Maximum altitude 14:36:15 38° 205° (SSW) 977 ? -0.9°
Drops below altitude 10° 14:40:33 10° 137° (SE) 2,024 ? -1.5°
Sets 14:43:00 0° 130° (SE) 2,934 ? -1.8°
